Time,TemperatureF,DewpointF,PressureIn,WindDirection,WindDirectionDegrees,WindSpeedMPH,WindSpeedGustMPH,Humidity,HourlyPrecipIn,Conditions,Clouds,dailyrainin,SolarRadiationWatts/m^2,SoftwareType,DateUTC
2013-08-17 00:01:00,61.0,54.0,-100.00,ENE,68,0.0,2.0,78,0.00,,,0.00,0.000000,,2013-08-17 06:01:00,
2013-08-17 00:12:00,61.0,54.0,-100.00,ENE,68,0.0,2.0,78,0.00,,,0.00,0.000000,,2013-08-17 06:12:00,
2013-08-17 00:21:00,61.0,54.0,-100.00,ENE,68,0.0,2.0,78,0.00,,,0.00,0.000000,,2013-08-17 06:21:00,
2013-08-17 00:52:00,62.0,55.0,-100.00,North,5,0.0,0.0,77,0.00,,,0.00,0.000000,,2013-08-17 06:52:00,
2013-08-17 01:01:00,62.0,55.0,-100.00,North,5,0.0,0.0,77,0.00,,,0.00,0.000000,,2013-08-17 07:01:00,
2013-08-17 01:11:00,62.0,55.0,-100.00,North,5,0.0,0.0,77,0.00,,,0.00,0.000000,,2013-08-17 07:11:00,
2013-08-17 01:21:00,62.0,55.0,-100.00,North,5,0.0,0.0,77,0.00,,,0.00,0.000000,,2013-08-17 07:21:00,
2013-08-17 01:52:00,60.0,54.0,-100.00,NW,317,3.0,4.0,80,0.00,,,0.00,0.000000,,2013-08-17 07:52:00,
2013-08-17 02:01:00,60.0,54.0,-100.00,NW,317,3.0,4.0,80,0.00,,,0.00,0.000000,,2013-08-17 08:01:00,
2013-08-17 02:11:00,60.0,54.0,-100.00,NW,317,3.0,4.0,80,0.00,,,0.00,0.000000,,2013-08-17 08:11:00,
2013-08-17 02:21:00,60.0,54.0,-100.00,NW,317,3.0,4.0,80,0.00,,,0.00,0.000000,,2013-08-17 08:21:00,
2013-08-17 02:52:00,62.0,53.0,-100.00,NNW,331,4.0,5.0,72,0.00,,,0.00,0.000000,,2013-08-17 08:52:00,
2013-08-17 03:01:00,62.0,53.0,-100.00,NNW,331,4.0,5.0,72,0.00,,,0.00,0.000000,,2013-08-17 09:01:00,
2013-08-17 03:21:00,62.0,53.0,-100.00,NNW,331,4.0,5.0,72,0.00,,,0.00,0.000000,,2013-08-17 09:21:00,
2013-08-17 03:53:00,62.0,51.0,-100.00,NW,325,3.0,4.0,67,0.00,,,0.00,0.000000,,2013-08-17 09:53:00,
2013-08-17 04:03:00,62.0,51.0,-100.00,NW,325,3.0,4.0,67,0.00,,,0.00,0.000000,,2013-08-17 10:03:00,
2013-08-17 04:23:00,62.0,51.0,-100.00,NW,325,3.0,4.0,67,0.00,,,0.00,0.000000,,2013-08-17 10:23:00,
2013-08-17 04:53:00,63.0,51.0,-100.00,NW,325,3.0,4.0,64,0.00,,,0.00,0.000000,,2013-08-17 10:53:00,
2013-08-17 05:02:00,63.0,51.0,-100.00,NW,325,3.0,4.0,64,0.00,,,0.00,0.000000,,2013-08-17 11:02:00,
2013-08-17 05:11:00,63.0,51.0,-100.00,NW,325,3.0,4.0,64,0.00,,,0.00,0.000000,,2013-08-17 11:11:00,
2013-08-17 05:21:00,63.0,51.0,-100.00,NW,325,3.0,4.0,64,0.00,,,0.00,0.000000,,2013-08-17 11:21:00,
2013-08-17 05:52:00,63.0,47.0,-100.00,NNW,336,3.0,4.0,56,0.00,,,0.00,0.000000,,2013-08-17 11:52:00,
2013-08-17 06:01:00,63.0,47.0,-100.00,NNW,336,3.0,4.0,56,0.00,,,0.00,0.000000,,2013-08-17 12:01:00,
2013-08-17 06:11:00,63.0,47.0,-100.00,NNW,336,3.0,4.0,56,0.00,,,0.00,0.000000,,2013-08-17 12:11:00,
2013-08-17 06:21:00,63.0,47.0,-100.00,NNW,336,3.0,4.0,56,0.00,,,0.00,0.000000,,2013-08-17 12:21:00,
2013-08-17 06:52:00,64.0,42.0,-100.00,NNW,327,3.0,4.0,45,0.00,,,0.00,4.000000,,2013-08-17 12:52:00,
2013-08-17 07:01:00,64.0,42.0,-100.00,NNW,327,3.0,4.0,45,0.00,,,0.00,4.000000,,2013-08-17 13:01:00,
2013-08-17 07:11:00,64.0,42.0,-100.00,NNW,327,3.0,4.0,45,0.00,,,0.00,4.000000,,2013-08-17 13:11:00,
2013-08-17 07:21:00,64.0,42.0,-100.00,NNW,327,3.0,4.0,45,0.00,,,0.00,4.000000,,2013-08-17 13:21:00,
2013-08-17 07:52:00,67.0,41.0,-100.00,NNW,345,3.0,5.0,38,0.00,,,0.00,47.000000,,2013-08-17 13:52:00,
2013-08-17 08:01:00,67.0,41.0,-100.00,NNW,345,3.0,5.0,38,0.00,,,0.00,47.000000,,2013-08-17 14:01:00,
2013-08-17 08:21:00,67.0,41.0,-100.00,NNW,345,3.0,5.0,38,0.00,,,0.00,47.000000,,2013-08-17 14:21:00,
2013-08-17 09:22:00,73.0,41.0,-100.00,North,10,3.0,5.0,31,0.00,,,0.00,167.000000,,2013-08-17 15:22:00,
2013-08-17 10:12:00,82.0,45.0,-100.00,WNW,298,0.0,4.0,27,0.00,,,0.00,466.000000,,2013-08-17 16:12:00,
2013-08-17 10:23:00,82.0,45.0,-100.00,WNW,298,0.0,4.0,27,0.00,,,0.00,466.000000,,2013-08-17 16:23:00,
2013-08-17 11:23:00,85.0,35.0,-100.00,SSW,198,3.0,6.0,17,0.00,,,0.00,662.000000,,2013-08-17 17:23:00,
2013-08-17 11:52:00,86.0,29.0,-100.00,SW,230,4.0,8.0,13,0.00,,,0.00,827.000000,,2013-08-17 17:52:00,
2013-08-17 12:02:00,86.0,29.0,-100.00,SW,230,4.0,8.0,13,0.00,,,0.00,827.000000,,2013-08-17 18:02:00,
2013-08-17 12:12:00,86.0,29.0,-100.00,SW,230,4.0,8.0,13,0.00,,,0.00,827.000000,,2013-08-17 18:12:00,
2013-08-17 12:52:00,86.0,38.0,-100.00,SSW,209,5.0,10.0,18,0.00,,,0.00,924.000000,,2013-08-17 18:52:00,
2013-08-17 13:01:00,86.0,38.0,-100.00,SSW,209,5.0,10.0,18,0.00,,,0.00,924.000000,,2013-08-17 19:01:00,
2013-08-17 13:11:00,86.0,38.0,-100.00,SSW,209,5.0,10.0,18,0.00,,,0.00,924.000000,,2013-08-17 19:11:00,
2013-08-17 13:21:00,86.0,38.0,-100.00,SSW,209,5.0,10.0,18,0.00,,,0.00,924.000000,,2013-08-17 19:21:00,
2013-08-17 13:52:00,87.0,38.0,-100.00,SSW,192,5.0,11.0,18,0.00,,,0.00,932.000000,,2013-08-17 19:52:00,
2013-08-17 14:02:00,87.0,38.0,-100.00,SSW,192,5.0,11.0,18,0.00,,,0.00,932.000000,,2013-08-17 20:02:00,
2013-08-17 14:11:00,87.0,38.0,-100.00,SSW,192,5.0,11.0,18,0.00,,,0.00,932.000000,,2013-08-17 20:11:00,
2013-08-17 14:21:00,87.0,38.0,-100.00,SSW,192,5.0,11.0,18,0.00,,,0.00,932.000000,,2013-08-17 20:21:00,
2013-08-17 14:52:00,87.0,42.0,-100.00,SW,220,4.0,9.0,21,0.00,,,0.00,908.000000,,2013-08-17 20:52:00,
2013-08-17 15:01:00,87.0,42.0,-100.00,SW,220,4.0,9.0,21,0.00,,,0.00,908.000000,,2013-08-17 21:01:00,
2013-08-17 15:11:00,87.0,42.0,-100.00,SW,220,4.0,9.0,21,0.00,,,0.00,908.000000,,2013-08-17 21:11:00,
2013-08-17 15:21:00,87.0,42.0,-100.00,SW,220,4.0,9.0,21,0.00,,,0.00,908.000000,,2013-08-17 21:21:00,
2013-08-17 15:54:00,87.0,45.0,-100.00,SSW,201,4.0,9.0,23,0.00,,,0.00,794.000000,,2013-08-17 21:54:00,
2013-08-17 16:03:00,87.0,45.0,-100.00,SSW,201,4.0,9.0,23,0.00,,,0.00,794.000000,,2013-08-17 22:03:00,
2013-08-17 16:13:00,87.0,45.0,-100.00,SSW,201,4.0,9.0,23,0.00,,,0.00,794.000000,,2013-08-17 22:13:00,
2013-08-17 16:22:00,87.0,45.0,-100.00,SSW,201,4.0,9.0,23,0.00,,,0.00,794.000000,,2013-08-17 22:22:00,
2013-08-17 16:52:00,86.0,48.0,-100.00,SSW,198,4.0,9.0,27,0.00,,,-99.99,677.000000,,2013-08-17 22:52:00,
2013-08-17 17:02:00,86.0,48.0,-100.00,SSW,198,4.0,9.0,27,0.00,,,-99.99,677.000000,,2013-08-17 23:02:00,
2013-08-17 17:11:00,86.0,48.0,-100.00,SSW,198,4.0,9.0,27,0.00,,,-99.99,677.000000,,2013-08-17 23:11:00,
2013-08-17 17:22:00,86.0,48.0,-100.00,SSW,198,4.0,9.0,27,0.00,,,-99.99,677.000000,,2013-08-17 23:22:00,
2013-08-17 17:52:00,84.0,51.0,-100.00,SSE,154,5.0,10.0,32,0.00,,,0.00,490.000000,,2013-08-17 23:52:00,
2013-08-17 18:01:00,84.0,51.0,-100.00,SSE,154,5.0,10.0,32,0.00,,,0.00,490.000000,,2013-08-18 00:01:00,
2013-08-17 18:12:00,84.0,51.0,-100.00,SSE,154,5.0,10.0,32,0.00,,,0.00,490.000000,,2013-08-18 00:12:00,
2013-08-17 18:21:00,84.0,51.0,-100.00,SSE,154,5.0,10.0,32,0.00,,,0.00,490.000000,,2013-08-18 00:21:00,
2013-08-17 18:52:00,79.0,56.0,-100.00,SE,132,3.0,8.0,46,0.00,,,0.00,183.000000,,2013-08-18 00:52:00,
2013-08-17 19:01:00,79.0,56.0,-100.00,SE,132,3.0,8.0,46,0.00,,,0.00,183.000000,,2013-08-18 01:01:00,
2013-08-17 19:11:00,79.0,56.0,-100.00,SE,132,3.0,8.0,46,0.00,,,0.00,183.000000,,2013-08-18 01:11:00,
2013-08-17 19:21:00,79.0,56.0,-100.00,SE,132,3.0,8.0,46,0.00,,,0.00,183.000000,,2013-08-18 01:21:00,
2013-08-17 19:52:00,73.0,59.0,-100.00,ESE,108,2.0,6.0,61,0.00,,,0.00,50.000000,,2013-08-18 01:52:00,
2013-08-17 20:02:00,73.0,59.0,-100.00,ESE,108,2.0,6.0,61,0.00,,,0.00,50.000000,,2013-08-18 02:02:00,
2013-08-17 20:11:00,73.0,59.0,-100.00,ESE,108,2.0,6.0,61,0.00,,,0.00,50.000000,,2013-08-18 02:11:00,
2013-08-17 20:21:00,73.0,59.0,-100.00,ESE,108,2.0,6.0,61,0.00,,,0.00,50.000000,,2013-08-18 02:21:00,
2013-08-17 20:52:00,69.0,58.0,-100.00,East,85,1.0,5.0,69,0.00,,,0.00,9.000000,,2013-08-18 02:52:00,
2013-08-17 21:02:00,69.0,58.0,-100.00,East,85,1.0,5.0,69,0.00,,,0.00,9.000000,,2013-08-18 03:02:00,
2013-08-17 21:11:00,69.0,58.0,-100.00,East,85,1.0,5.0,69,0.00,,,0.00,9.000000,,2013-08-18 03:11:00,
2013-08-17 21:21:00,69.0,58.0,-100.00,East,85,1.0,5.0,69,0.00,,,0.00,9.000000,,2013-08-18 03:21:00,
2013-08-17 21:53:00,70.0,57.0,-100.00,East,89,2.0,4.0,64,0.00,,,0.00,0.000000,,2013-08-18 03:53:00,
2013-08-17 22:02:00,-999.0,-99.9,-100.00,East,89,2.0,4.0,-999,0.00,,,0.00,0.000000,,2013-08-18 04:02:00,
2013-08-17 22:12:00,70.0,57.0,-100.00,East,89,2.0,4.0,64,0.00,,,0.00,0.000000,,2013-08-18 04:12:00,
2013-08-17 22:23:00,70.0,57.0,-100.00,East,89,2.0,4.0,64,0.00,,,0.00,0.000000,,2013-08-18 04:23:00,
2013-08-17 22:53:00,68.0,57.0,-100.00,NNW,339,0.0,3.0,69,0.00,,,0.00,0.000000,,2013-08-18 04:53:00,
2013-08-17 23:02:00,68.0,57.0,-100.00,NNW,339,0.0,3.0,69,0.00,,,0.00,0.000000,,2013-08-18 05:02:00,
2013-08-17 23:12:00,68.0,57.0,-100.00,NNW,339,0.0,3.0,69,0.00,,,0.00,0.000000,,2013-08-18 05:12:00,
2013-08-17 23:22:00,68.0,57.0,-100.00,NNW,339,0.0,3.0,69,0.00,,,0.00,0.000000,,2013-08-18 05:22:00,
2013-08-17 23:52:00,68.0,57.0,-100.00,NW,326,2.0,4.0,68,0.00,,,0.00,0.000000,,2013-08-18 05:52:00,